Weather History for KDDC - November, 2013

Change the Weather History Date:

Wednesday, November 6, 2013

  Actual Average Record
Temperature  
Mean Temperature 41 °F -  
Max Temperature 54 °F 57 °F - (-1)
Min Temperature 28 °F 33 °F - (-1)
Degree Days  
Heating Degree Days 24    
Moisture  
Dew Point 26 °F    
Average Humidity 61    
Maximum Humidity 93    
Minimum Humidity 16    
Precipitation  
Precipitation 0.00 in - - ()
Sea Level Pressure  
Sea Level Pressure 30.29 in    
Wind  
Wind Speed 9 mph (WNW)    
Max Wind Speed 17 mph    
Max Gust Speed 24 mph    
Visibility 10 miles    
Events      
Averages and records for this station are not official NWS values.
T = Trace of Precipitation, MM = Missing Value Source: NWS Daily Summary

Daily Weather History Graph

Daily Weather History Graph

Search for Another Location

Airport or City:

Trip Planner

Search our weather history database for the weather conditions in past years. The results will help you decide how hot, cold, wet, or windy it might be!

Date:

Astronomy

Nov. 06, 2013 Rise Set
Actual Time 7:10 AM CST 5:35 PM CST
Civil Twilight 6:43 AM CST 6:03 PM CST
Nautical Twilight 6:12 AM CST 6:34 PM CST
Astronomical Twilight 5:41 AM CST 7:05 PM CST
Moon 10:25 AM CST (11/6) 8:43 PM CST (11/6)
Length of Visible Light 11h 20m
Length of Day
10h 25m
Waxing Crescent, 14% of the Moon is Illuminated
Nov 6
Waxing Crescent
Nov 9
First Quarter
Nov 17
Full
Nov 25
Last Quarter
Dec 2
New

Hourly Weather History & Observations

Time (CST) Temp. Windchill Dew Point Humidity Pressure Visibility Wind Dir Wind Speed Gust Speed Precip Events Conditions
12:19 AM 33.8 °F 24.8 °F 30.2 °F 87% 30.16 in 10.0 mi NNW 12.7 mph - N/A   Mostly Cloudy
12:52 AM 34.0 °F 23.4 °F 30.0 °F 85% 30.16 in 10.0 mi NNW 17.3 mph 24.2 mph N/A   Overcast
1:27 AM 33.8 °F 27.0 °F 30.2 °F 87% 30.17 in 10.0 mi NNW 8.1 mph 20.7 mph N/A   Scattered Clouds
1:52 AM 32.0 °F 26.4 °F 28.9 °F 88% 30.21 in 10.0 mi NNW 5.8 mph - N/A   Clear
2:52 AM 28.9 °F 23.9 °F 27.0 °F 92% 30.23 in 10.0 mi NNW 4.6 mph - N/A   Clear
3:27 AM 30.2 °F 24.3 °F 28.4 °F 93% 30.20 in 10.0 mi NNW 5.8 mph - N/A   Mostly Cloudy
3:52 AM 28.9 °F 23.9 °F 27.0 °F 92% 30.24 in 10.0 mi NNW 4.6 mph - N/A   Mostly Cloudy
4:52 AM 30.0 °F 22.4 °F 27.0 °F 88% 30.27 in 10.0 mi NW 8.1 mph - N/A   Overcast
5:33 AM 28.4 °F 21.2 °F 24.8 °F 86% 30.23 in 10.0 mi WNW 6.9 mph - N/A   Scattered Clouds
5:52 AM 28.0 °F 20.8 °F 25.0 °F 88% 30.28 in 10.0 mi WNW 6.9 mph - N/A   Clear
6:52 AM 28.0 °F 18.6 °F 25.0 °F 88% 30.30 in 10.0 mi WNW 10.4 mph - N/A   Clear
7:52 AM 28.9 °F 21.9 °F 26.1 °F 89% 30.32 in 10.0 mi NW 6.9 mph - N/A   Clear
8:52 AM 34.0 °F 27.2 °F 27.0 °F 75% 30.33 in 10.0 mi NW 8.1 mph - N/A   Clear
9:52 AM 39.0 °F 33.4 °F 28.9 °F 67% 30.34 in 10.0 mi WNW 8.1 mph - N/A   Clear
10:52 AM 43.0 °F 36.8 °F 28.9 °F 58% 30.34 in 10.0 mi West 11.5 mph - N/A   Clear
11:52 AM 48.0 °F - 27.0 °F 44% 30.32 in 10.0 mi West 10.4 mph - N/A   Clear
12:52 PM 51.1 °F - 23.0 °F 33% 30.30 in 10.0 mi WNW 11.5 mph - N/A   Clear
1:52 PM 53.1 °F - 21.9 °F 30% 30.27 in 10.0 mi West 10.4 mph - N/A   Clear
2:52 PM 54.0 °F - 21.0 °F 28% 30.28 in 10.0 mi West 12.7 mph - N/A   Clear
3:52 PM 54.0 °F - 19.9 °F 26% 30.28 in 10.0 mi West 10.4 mph - N/A   Clear
4:52 PM 52.0 °F - 21.9 °F 31% 30.29 in 10.0 mi West 9.2 mph - N/A   Clear
5:52 PM 46.9 °F - 24.1 °F 41% 30.30 in 10.0 mi WSW 5.8 mph - N/A   Clear
6:52 PM 43.0 °F 40.3 °F 25.0 °F 49% 30.32 in 10.0 mi SSW 4.6 mph - N/A   Clear
7:52 PM 41.0 °F 38.0 °F 26.1 °F 55% 30.34 in 10.0 mi SSW 4.6 mph - N/A   Clear
8:52 PM 44.1 °F 42.5 °F 23.0 °F 43% 30.34 in 10.0 mi SW 3.5 mph - N/A   Clear
9:52 PM 37.9 °F 33.5 °F 26.1 °F 62% 30.37 in 10.0 mi SW 5.8 mph - N/A   Clear
10:52 PM 39.9 °F 36.7 °F 24.1 °F 53% 30.37 in 10.0 mi SW 4.6 mph - N/A   Clear
11:52 PM 39.0 °F 33.4 °F 25.0 °F 57% 30.37 in 10.0 mi WSW 8.1 mph - N/A   Clear